Dewpoint
-0 1 1 -2 -2 -3 -3 -2 -3 -5 -8 -5 -4 -5 -3 -3 -1 0 2 2 2 2 4 5 6 6 5 6 7 7 7 7 10 11 12 12 12 12 12 10 10 12 12 12
-0 2 -2 -4 -3 -2 -1 -2 -2 -5 -7 -5 -4 -4 -5 -4 -2 0 2 2 3 5 6 8 9 8 7 6 7 8 8 8 10 11 12 11 12 11 10 12 12 12 12 12
-0 -2 -5 -3 -1 -2 -3 -2 -3 -4 -6 -7 -4 -0 -1 -1 1 3 2 3 4 7 8 9 9 10 9 9 9 10 10 10 11 10 11 11 12 10 10 12 12 12 12 11
-2 -3 -3 -3 -3 -3 -1 -5 -4 -4 -4 -3 -0 -1 -1 1 3 2 2 3 6 8 8 9 9 9 9 10 10 11 12 11 10 11 11 11 10 10 9 11 11 11 10 9
-1 -1 -1 -0 -2 -3 -2 -4 -4 -4 -2 -2 -1 1 -2 0 2 1 1 5 7 8 9 9 9 9 9 11 10 10 11 12 11 12 11 11 11 9 11 10 11 10 10 10
-2 -4 -4 -3 -5 -4 -3 -2 -1 -1 -1 1 -1 2 -4 1 -1 0 2 5 7 8 9 9 9 9 9 10 11 9 10 11 10 11 10 11 10 10 10 10 11 10 9 9
-1 -2 -5 -5 -3 -3 -2 -1 2 4 7 4 2 2 -2 1 1 0 3 5 7 8 9 9 9 9 9 10 11 11 10 9 9 8 10 7 6 7 9 10 10 10 7 9
1 0 -3 -5 -4 -2 -1 -2 4 11 4 5 2 4 -1 -1 2 4 5 6 7 8 8 8 9 9 9 10 10 10 10 10 11 8 10 6 6 5 10 9 8 9 9 10
-2 -1 -4 -5 -5 -5 -3 -1 -4 -0 -0 3 1 1 2 1 3 4 5 6 7 8 8 8 8 9 8 9 9 10 10 10 10 10 10 11 11 10 10 10 9 8 10 9
-4 -1 -3 -4 -6 -5 -2 -4 -1 -0 8 4 -2 -1 -2 4 3 3 5 6 7 8 8 9 8 8 8 8 9 9 9 10 9 10 10 10 10 10 10 10 10 10 9 8
-3 -3 -3 -2 -2 -2 -2 -0 -1 -1 -2 1 -1 -4 -6 -0 1 1 3 5 6 7 8 8 8 8 8 8 8 9 8 9 9 9 9 9 9 9 9 9 10 10 10 9
-3 -4 -2 -1 -5 -5 -4 -3 -4 -2 -0 -1 -4 -2 -6 -5 -4 -2 3 5 6 7 8 8 8 8 8 8 8 8 9 8 9 9 9 9 9 9 9 9 9 8 8 8
-1 -2 0 -2 -3 -5 -3 -3 -4 -4 -4 -1 -1 -2 -6 -6 -5 -1 4 5 6 7 8 7 8 8 8 8 8 8 8 8 8 8 8 8 9 9 9 9 9 8 8 8
-0 -1 -1 -0 -3 -4 -3 -3 -3 -3 -1 -3 -4 -2 -2 -2 -2 1 4 5 6 7 8 8 8 8 8 8 8 8 8 9 9 8 8 9 9 9 9 8 8 8 7 7
-1 1 -2 -4 -5 -5 -4 -4 -3 -2 -3 -4 -5 -5 -5 -3 -1 -0 3 5 6 7 8 8 8 8 8 8 8 8 8 8 8 8 8 8 8 8 8 8 7 7 7 6
-2 1 -2 -2 -4 -4 -3 -4 -4 -3 -3 -4 -6 -5 -8 -5 -2 -1 2 5 6 6 7 8 8 7 7 7 7 7 8 7 7 8 8 8 8 8 8 7 7 7 6 6
-0 0 -0 0 -3 -3 -2 -4 -3 -3 -4 -4 -4 -5 -7 -7 -3 -1 1 4 5 6 7 8 8 8 7 7 7 7 7 7 7 7 7 7 7 6 5 5 5 5 5 5
3 2 1 1 -1 2 -3 -6 -5 -4 -4 -5 -5 -6 -6 -7 -6 -2 0 3 4 6 7 7 7 7 6 7 7 7 7 7 6 5 5 4 2 0 -0 1 2 3 3 3
3 3 3 3 2 -1 -3 -3 -3 -4 -3 -5 -4 -5 -6 -6 -6 -4 -1 2 3 5 6 7 7 6 6 6 6 5 4 4 4 4 3 3 2 1 1 0 -0 -0 -2 -5
3 4 3 4 4 4 -3 -5 -5 -4 -0 -6 -4 -3 -5 -5 -2 -3 -2 1 3 5 6 7 7 6 5 5 5 4 2 2 2 1 -2 -6 -9 -11 -9 -7 -7 -7 -9 -12
5 5 5 5 5 -0 -4 -4 -4 -0 -3 -6 -6 -4 -4 -3 -4 -6 -4 0 2 4 6 7 7 6 5 5 5 3 1 0 -1 -2 -4 -7 -7 -6 -8 -12 -14 -16 -15 -15
4 5 5 4 4 4 -3 -3 -2 -4 -2 -3 -4 -4 -4 -4 -4 -3 -3 1 2 4 6 7 7 7 6 6 5 3 1 -0 -2 -4 -8 -13 -19 -20 -23 -23 -22 -20 -19 -17
4 3 3 1 2 -3 -4 -4 -5 -6 -2 -3 -3 -3 -4 -4 -2 -2 -1 1 3 5 6 7 7 7 6 5 5 3 1 -0 -1 -5 -8 -13 -17 -20 -19 -19 -18 -15 -16 -16
-2 -0 2 1 -2 -3 -3 -4 -5 -6 -4 -4 -2 -2 -3 -2 -2 -1 0 2 3 5 6 7 7 7 7 5 5 3 1 -0 -1 -4 -7 -10 -16 -19 -20 -19 -20 -18 -17 -13
-3 -2 -1 -1 -1 -4 -4 -4 -5 -6 -6 -7 -4 -2 -2 -3 -1 -1 1 2 3 5 6 6 7 7 7 5 5 4 2 0 -0 -3 -6 -8 -11 -15 -14 -15 -16 -16 -14 -14
-3 -2 -1 -2 -4 -4 -4 -4 -6 -6 -6 -7 -6 -2 -1 -2 -1 -2 0 2 3 4 4 5 6 6 6 5 5 4 3 1 -0 -2 -4 -7 -8 -11 -13 -13 -12 -14 -13 -17
Wind_Speed
14 10 14 15 14 16 13 13 15 13 6 8 16 16 14 12 14 14 13 11 12 16 19 18 18 18 19 19 19 18 18 18 16 24 18 16 13 10 15 18 22 27 35 40
10 15 17 13 8 9 12 16 16 13 5 8 16 18 15 13 11 11 6 8 11 14 13 16 17 12 10 11 13 13 16 16 18 22 16 15 10 11 13 17 18 33 39 43
18 8 3 12 12 13 15 15 15 15 11 13 17 22 15 7 7 6 6 4 6 8 11 14 14 12 6 6 7 10 13 16 20 20 17 16 14 8 13 18 26 37 34 34
15 21 12 10 14 11 14 13 11 12 8 8 2 7 6 12 10 9 5 1 3 5 8 11 14 14 8 6 4 5 10 15 20 20 18 17 11 11 18 21 33 30 34 32
9 11 13 16 18 15 14 0 5 8 10 14 16 7 9 10 10 11 4 2 2 3 7 10 12 12 10 9 8 8 7 12 10 17 13 10 9 5 11 25 27 32 31 29
20 1 10 13 5 9 5 5 6 8 8 9 18 12 6 10 10 8 6 7 4 3 5 9 9 11 12 10 10 9 9 11 11 6 8 11 4 6 6 28 30 31 31 26
19 20 9 9 8 5 10 7 3 5 5 4 4 5 13 8 6 6 8 9 5 3 3 5 8 12 12 13 11 9 9 11 13 11 9 8 4 5 13 14 23 29 28 24
18 11 24 18 20 9 17 15 5 5 4 2 2 7 2 6 10 10 9 8 7 4 4 4 5 8 9 11 10 7 6 8 10 8 9 9 9 3 15 12 20 18 13 24
11 12 6 6 16 16 11 13 13 13 11 6 7 10 5 9 11 11 11 11 9 6 5 4 4 5 5 7 10 11 10 8 7 9 8 9 9 15 21 13 22 23 17 14
11 8 10 6 8 10 10 10 7 6 4 6 8 10 6 15 15 13 12 14 12 9 6 4 5 5 4 4 6 6 6 9 8 7 7 10 12 13 20 17 14 15 14 12
19 12 7 9 14 16 10 12 8 5 9 4 5 3 7 14 16 15 14 16 15 12 9 7 7 6 5 4 4 5 6 8 9 9 12 13 14 14 13 14 15 14 13 12
26 12 12 16 1 17 20 18 18 7 9 8 9 3 4 11 12 15 16 17 16 14 11 9 8 8 5 6 6 5 8 9 10 12 10 12 13 13 15 16 14 13 13 13
13 14 13 13 7 7 12 20 20 19 11 12 8 1 4 10 11 14 17 18 18 16 13 11 9 8 8 9 7 9 11 12 11 11 12 15 15 15 13 13 11 10 10 11
7 15 24 17 14 14 12 21 23 20 14 16 16 5 11 12 13 14 18 19 19 18 16 15 13 11 11 10 10 11 12 12 13 13 13 13 13 11 10 12 11 11 11 10
7 13 23 24 25 9 13 21 26 27 26 15 16 16 13 17 17 19 21 21 21 20 18 18 18 15 13 13 13 13 13 13 13 12 14 16 16 15 14 14 12 11 11 12
6 14 19 22 23 12 14 16 22 28 25 24 17 12 6 19 21 20 23 24 23 23 21 22 21 18 16 16 17 17 16 15 16 15 14 15 15 15 14 12 12 12 12 12
5 12 17 18 20 11 15 23 20 21 24 24 21 21 9 11 19 25 27 27 27 26 25 25 24 20 17 18 19 19 18 16 15 15 15 15 15 14 14 15 14 13 12 12
6 7 9 13 14 16 14 18 21 22 23 21 21 11 9 14 22 26 27 29 28 27 27 26 24 23 20 19 17 17 17 15 16 17 16 15 15 15 15 15 14 14 14 13
11 6 5 9 13 12 5 4 21 18 20 21 21 17 14 14 15 21 28 28 29 29 28 27 25 24 23 21 20 20 19 18 18 17 16 15 15 16 16 16 15 14 13 11
19 15 7 5 17 21 12 11 14 13 13 16 22 19 19 18 13 12 31 31 28 28 28 28 27 26 24 23 22 22 20 20 18 17 17 16 15 14 14 14 13 11 10 10
12 6 11 13 11 14 10 14 17 14 5 17 24 28 27 20 18 17 34 32 30 31 30 29 30 28 26 26 23 23 21 20 18 18 18 17 15 15 14 15 14 14 12 11
14 13 7 11 16 20 9 13 14 8 1 1 11 23 35 31 17 23 36 36 35 34 32 32 31 28 27 28 26 24 23 21 21 20 20 19 18 18 17 17 16 15 13 12
17 11 12 14 18 5 23 11 27 5 3 2 7 17 26 29 20 26 33 37 37 38 36 34 32 28 27 27 27 25 25 24 24 23 22 21 18 16 15 15 15 13 12 12
24 22 16 16 19 24 14 22 14 11 3 5 9 16 27 28 23 27 33 34 35 36 37 36 33 31 30 28 29 24 26 27 26 25 23 21 20 18 17 16 15 14 14 13
12 16 19 22 21 17 26 22 15 20 7 3 8 16 25 27 27 31 33 35 35 38 38 40 37 34 32 32 31 27 29 30 28 26 24 23 20 19 18 16 16 16 14 13
13 14 13 12 18 17 22 27 22 25 14 9 10 17 21 25 28 31 34 36 38 40 39 38 36 36 35 33 32 31 32 32 31 28 27 27 26 24 23 20 19 18 17 15
Wind_Direction
204 229 230 242 227 257 297 284 279 282 280 271 268 268 276 266 247 250 263 272 301 310 313 315 308 292 277 267 259 245 234 224 207 218 198 210 234 230 252 242 240 220 206 205
206 238 249 259 270 264 256 266 268 276 307 275 277 278 278 261 260 259 263 290 317 325 336 333 323 315 298 275 259 241 225 215 201 220 187 208 214 234 253 237 222 198 191 196
232 261 19 254 228 243 244 256 270 285 307 279 268 281 240 210 219 197 228 298 328 349 343 346 354 333 302 268 247 233 220 203 203 211 186 206 209 246 233 215 196 205 196 190
241 250 228 228 234 233 260 255 256 278 286 283 115 288 252 174 200 201 225 330 30 1 359 12 9 8 15 45 63 198 197 183 205 192 198 217 233 255 233 216 214 195 185 187
227 214 231 236 245 243 261 204 244 264 273 285 272 246 243 163 200 201 184 157 110 35 26 26 20 20 25 66 102 105 126 169 172 181 197 219 222 256 245 224 198 185 183 185
244 214 204 227 236 237 112 212 239 258 264 262 252 209 253 181 218 136 170 163 135 82 47 43 31 34 34 59 87 98 129 152 165 174 200 230 288 274 317 197 205 192 184 183
223 228 212 189 184 191 198 215 249 235 200 261 56 229 253 114 134 153 160 164 146 113 84 66 58 45 39 47 65 86 108 132 147 164 175 150 54 303 250 203 160 176 178 189
218 222 208 201 209 198 206 209 197 234 245 263 157 235 240 129 146 145 150 161 156 141 117 119 95 82 59 54 56 71 108 117 133 177 194 193 159 24 192 187 184 167 168 190
224 227 203 183 207 216 184 223 245 275 263 275 219 235 172 173 169 167 166 176 169 166 151 144 124 101 93 68 68 66 76 95 119 130 146 162 176 198 180 186 181 180 181 203
249 239 183 179 193 224 234 180 178 217 234 246 216 241 230 188 192 180 181 186 172 170 164 154 151 125 113 99 73 64 64 77 100 110 117 122 135 156 179 184 188 176 177 197
227 245 170 155 211 188 182 201 220 224 229 283 289 198 5 177 190 180 185 184 177 176 179 174 162 147 132 114 96 103 96 93 98 116 121 120 122 131 139 151 151 162 159 172
209 228 211 210 154 229 205 213 214 213 218 233 287 289 188 148 169 170 174 175 176 170 168 172 171 159 142 132 122 121 112 117 117 123 112 120 125 133 144 147 147 142 146 147
205 230 239 186 196 212 226 216 227 225 256 255 239 166 163 145 160 170 166 171 173 167 165 168 172 165 152 147 140 132 130 129 136 130 126 117 111 110 114 119 119 129 128 134
265 219 223 221 221 176 202 210 215 223 224 232 235 210 190 183 180 174 171 174 174 175 171 173 173 168 155 153 158 148 141 139 138 143 132 126 118 120 131 136 140 140 140 135
185 232 241 244 257 235 208 204 204 211 218 226 240 233 204 193 194 185 177 177 178 178 176 176 176 169 165 157 159 157 152 149 149 146 139 136 131 128 126 122 126 127 129 135
196 249 253 249 243 229 237 225 212 214 221 231 247 243 272 186 191 185 184 182 185 185 182 177 179 168 174 167 162 158 157 148 144 144 141 135 138 142 139 140 138 135 130 126
291 231 245 249 230 220 251 222 211 216 220 225 231 239 249 201 189 191 188 188 189 188 183 179 177 175 172 172 173 168 164 164 163 160 153 150 152 149 147 147 144 137 137 145
284 295 271 244 246 211 255 215 202 209 212 217 234 240 214 206 210 199 197 190 189 188 185 181 177 173 171 168 165 165 161 160 159 158 152 151 151 150 149 149 153 154 154 149
224 266 269 232 207 250 165 217 189 202 228 220 223 220 218 197 198 207 200 197 191 187 184 183 178 174 170 168 165 163 159 158 156 155 155 155 154 150 152 151 146 144 146 150
205 223 243 295 233 230 247 201 197 192 257 212 213 210 200 176 195 200 196 193 189 185 182 179 177 173 173 170 169 166 166 166 165 165 166 167 166 169 162 159 155 154 158 163
187 179 207 231 243 242 254 150 153 185 270 204 198 203 192 194 205 195 183 186 184 181 179 177 177 179 178 176 176 172 172 172 172 170 168 167 169 165 171 171 174 172 173 169
188 172 183 214 236 243 145 152 185 200 87 319 205 193 193 192 196 169 171 176 177 176 177 178 177 180 179 184 182 177 180 175 178 178 179 181 185 187 187 187 183 183 182 180
201 194 197 194 217 285 187 208 211 251 278 206 194 186 180 175 169 164 169 172 174 173 175 177 178 179 181 185 185 181 182 181 187 189 191 192 191 192 191 191 189 187 188 189
208 191 210 238 231 227 213 221 218 226 219 217 175 175 172 171 168 162 166 170 172 173 175 176 178 181 182 190 187 186 187 191 194 195 195 196 198 197 199 199 201 205 203 198
209 207 210 214 235 221 229 226 225 210 222 208 177 176 176 171 171 166 165 169 172 173 176 180 182 181 185 193 190 186 195 197 196 196 198 200 201 203 203 207 210 209 211 215
245 207 207 213 203 223 225 236 231 226 226 223 186 168 177 176 172 175 170 172 174 177 181 182 182 186 192 196 193 189 203 204 200 197 200 206 206 208 209 208 212 213 214 219
Height
1495 1495 1490 1482 1481 1480 1480 1483 1483 1475 1475 1484 1480 1473 1468 1468 1471 1474 1477 1478 1479 1480 1479 1477 1474 1471 1469 1468 1467 1468 1470 1473 1478 1478 1483 1487 1490 1492 1492 1492 1493 1496 1501 1508
1490 1491 1480 1476 1478 1482 1484 1485 1480 1473 1475 1482 1475 1468 1462 1463 1465 1471 1474 1477 1479 1478 1478 1475 1471 1468 1465 1464 1463 1464 1466 1469 1474 1475 1481 1485 1488 1489 1488 1490 1492 1492 1498 1504
1482 1473 1477 1477 1481 1485 1481 1482 1478 1476 1474 1475 1473 1463 1452 1460 1467 1473 1475 1476 1477 1479 1478 1474 1469 1466 1462 1461 1462 1462 1464 1468 1471 1474 1480 1481 1484 1486 1487 1490 1491 1492 1498 1504
1475 1472 1475 1479 1478 1478 1481 1470 1475 1480 1484 1480 1472 1474 1449 1455 1465 1471 1471 1473 1476 1479 1477 1473 1469 1466 1463 1460 1459 1459 1462 1466 1469 1474 1478 1481 1483 1485 1486 1487 1488 1490 1496 1502
1468 1470 1471 1476 1474 1472 1477 1477 1478 1480 1481 1477 1469 1477 1442 1447 1458 1461 1466 1472 1475 1477 1475 1473 1471 1468 1466 1463 1462 1462 1463 1467 1470 1475 1479 1481 1481 1482 1483 1486 1486 1489 1494 1503
1463 1467 1468 1467 1470 1469 1473 1479 1480 1479 1479 1481 1454 1466 1438 1446 1449 1454 1465 1470 1474 1475 1475 1473 1472 1470 1469 1466 1465 1465 1466 1468 1472 1476 1477 1479 1480 1480 1480 1480 1484 1487 1495 1503
1465 1463 1467 1467 1473 1476 1477 1477 1485 1482 1486 1469 1459 1465 1445 1444 1451 1455 1462 1467 1473 1474 1474 1473 1472 1472 1471 1469 1467 1467 1468 1469 1472 1474 1475 1478 1479 1480 1481 1482 1480 1486 1495 1502
1463 1463 1455 1459 1457 1466 1471 1469 1482 1506 1473 1466 1470 1468 1443 1440 1453 1458 1462 1467 1471 1473 1473 1473 1473 1472 1472 1471 1470 1470 1469 1469 1473 1473 1474 1477 1479 1480 1478 1484 1485 1489 1495 1500
1448 1446 1443 1451 1453 1455 1461 1470 1461 1470 1468 1477 1455 1444 1445 1447 1453 1457 1461 1466 1469 1472 1473 1473 1473 1473 1473 1473 1473 1471 1471 1472 1473 1475 1476 1477 1478 1480 1483 1486 1486 1492 1497 1501
1439 1445 1447 1455 1455 1456 1457 1454 1470 1472 1487 1468 1430 1433 1427 1445 1445 1452 1457 1462 1466 1471 1472 1473 1473 1473 1473 1474 1475 1475 1474 1474 1475 1476 1476 1479 1480 1482 1484 1487 1490 1495 1498 1502
1440 1443 1453 1458 1453 1444 1458 1456 1455 1450 1452 1449 1435 1420 1415 1426 1435 1443 1451 1457 1462 1468 1471 1472 1473 1473 1474 1475 1476 1476 1476 1478 1478 1479 1480 1481 1482 1483 1486 1489 1493 1496 1498 1501
1432 1433 1439 1448 1436 1437 1438 1443 1443 1447 1451 1446 1439 1430 1421 1423 1432 1439 1446 1454 1461 1465 1469 1471 1472 1473 1474 1476 1476 1477 1479 1480 1481 1482 1484 1485 1485 1487 1489 1491 1494 1496 1500 1503
1429 1431 1437 1435 1443 1441 1438 1433 1432 1433 1433 1442 1441 1424 1423 1427 1433 1439 1445 1453 1458 1463 1467 1470 1472 1473 1474 1476 1477 1478 1480 1482 1483 1485 1486 1487 1488 1490 1494 1496 1498 1501 1503 1506
1427 1424 1423 1414 1418 1416 1432 1426 1427 1428 1433 1434 1424 1422 1430 1430 1433 1437 1444 1450 1456 1461 1465 1467 1471 1473 1475 1477 1479 1480 1482 1483 1485 1487 1488 1490 1491 1494 1496 1498 1501 1504 1507 1508
1429 1430 1418 1408 1402 1406 1409 1414 1417 1422 1415 1422 1412 1411 1411 1423 1428 1433 1440 1447 1452 1457 1462 1465 1469 1473 1476 1478 1480 1482 1483 1485 1486 1488 1490 1492 1494 1496 1498 1500 1503 1505 1508 1511
1426 1425 1415 1409 1405 1412 1411 1405 1407 1410 1412 1414 1409 1410 1408 1416 1425 1431 1436 1442 1448 1453 1459 1463 1467 1471 1475 1477 1480 1483 1485 1487 1489 1490 1492 1494 1497 1500 1501 1504 1508 1509 1510 1512
1431 1424 1420 1411 1399 1412 1417 1396 1400 1400 1404 1406 1411 1401 1407 1412 1418 1423 1429 1436 1442 1449 1455 1460 1464 1470 1474 1476 1479 1483 1486 1489 1491 1492 1494 1496 1498 1499 1502 1507 1509 1510 1512 1515
1437 1430 1421 1410 1400 1423 1381 1377 1386 1392 1392 1396 1397 1398 1403 1408 1413 1420 1425 1430 1437 1444 1451 1457 1462 1467 1472 1477 1480 1483 1487 1491 1492 1495 1497 1500 1501 1503 1506 1508 1511 1513 1515 1517
1441 1437 1430 1414 1409 1385 1388 1380 1379 1388 1386 1384 1389 1395 1400 1407 1412 1415 1420 1427 1432 1439 1447 1453 1459 1465 1469 1473 1478 1482 1487 1491 1494 1496 1499 1502 1504 1506 1509 1512 1514 1515 1516 1517
1430 1436 1436 1424 1408 1398 1373 1371 1375 1382 1388 1370 1378 1385 1395 1403 1408 1403 1412 1420 1428 1436 1443 1450 1456 1462 1466 1471 1475 1480 1485 1489 1493 1496 1499 1501 1504 1507 1509 1511 1513 1515 1518 1520
1416 1425 1428 1429 1414 1378 1365 1366 1378 1391 1374 1357 1364 1373 1384 1390 1386 1396 1405 1415 1423 1430 1438 1446 1453 1458 1463 1469 1473 1478 1483 1488 1492 1495 1498 1501 1504 1507 1509 1512 1514 1517 1519 1521
1395 1406 1415 1418 1402 1388 1369 1373 1372 1364 1361 1360 1361 1365 1372 1382 1391 1392 1399 1409 1417 1425 1434 1442 1449 1455 1461 1466 1471 1476 1481 1486 1490 1493 1496 1500 1502 1504 1506 1509 1512 1514 1517 1520
1380 1380 1381 1380 1371 1361 1363 1363 1362 1360 1361 1361 1363 1365 1371 1381 1387 1391 1398 1406 1414 1421 1430 1438 1445 1452 1458 1462 1468 1474 1479 1483 1487 1491 1495 1499 1503 1506 1508 1511 1513 1515 1517 1518
1354 1364 1373 1373 1358 1360 1360 1361 1360 1361 1362 1361 1363 1366 1370 1377 1384 1389 1396 1404 1412 1419 1426 1434 1442 1448 1454 1458 1464 1471 1476 1480 1484 1489 1493 1497 1500 1503 1506 1508 1511 1513 1515 1517
1345 1355 1355 1355 1362 1355 1352 1356 1359 1359 1361 1361 1362 1365 1370 1375 1381 1385 1393 1401 1408 1414 1422 1428 1435 1443 1450 1454 1460 1468 1471 1476 1481 1486 1490 1495 1499 1502 1505 1508 1511 1513 1515 1517
1342 1346 1350 1346 1348 1352 1351 1350 1354 1357 1358 1361 1362 1364 1370 1374 1378 1383 1390 1396 1402 1409 1417 1425 1432 1438 1444 1450 1457 1463 1467 1472 1477 1482 1486 1490 1493 1497 1500 1504 1507 1511 1513 1514